sat.trackr.live / text

‹ back to catalog

SHIJIAN-6 01A (SJ-6 01A)

NORAD 28413 · 2004-035A

PAYLOAD ACTIVE UNKNOWN

§ Identity

Operator
Country
PRC
Launch date
2004-09-08
Launch site
TAISC
Launch vehicle
Mass (kg)
RCS (m²)
1.24

External: N2YO · Heavens-Above · Gunter

§ Orbital elements

Epoch: 2026-05-25T00:36:58.775328Z

Period
94.89 min
Inclination
97.5880°
Eccentricity
0.0005618
Mean motion
15.17607516 rev/d
Perigee alt
509.2 km
Apogee alt
516.9 km
Semi-major
6,891.2 km
B*
3.5671e-4
RAAN
172.0737°
Arg perigee
200.2351°
Mean anomaly
159.8661°
Rev number
18,395

§ Raw data

SHIJIAN-6 01A (SJ-6 01A)1 28413U 04035A   26145.02568027  .00007107  00000+0  35671-3 0  99972 28413  97.5880 172.0737 0005618 200.2351 159.8661 15.17607516183958

JSON: /api/v1/satellites/28413 · /tle

For live sub-satellite position, see the globe view (requires WebGL).

§ Visibility from observer

Set your observer location to see the next 7 days of passes ≥ 10°. The values pass through the URL so the page stays shareable.

No JS? Fill the form by hand. The geolocation button needs JavaScript.

§ Radio — SatNOGS DB

ModeDescriptionDownlinkUplink
FM S-band telemetry 2.230 GHz

1 transmitter · refreshed weekly from db.satnogs.org